Retour au catalogue

ATLAS 5 CENTAUR DEB

ActifHEO
NORAD 44642·DEBRIS·🇺🇸 United States

Lancé Oct 17, 2018 depuis Cape Canaveral Space Force Station

Loading…

Prochains Passages (prochaines 24 heures)

TLE

FraisSource: Space-Track

Époque: Sep 14, 2026, 11:55 UTC

1 44642U 18079C   26257.49675796 -.00000172  00000-0  00000-0 0  9991
2 44642  13.3538  19.6239 4641110 349.7452   3.2693  1.84469704 53291

Suivez ATLAS 5 CENTAUR DEB en temps réel avec AllMySat

Download on the App Store